Weather History for Savannah, GA

Change the Weather History Date:

Wednesday, October 16, 2013

  Actual Average Record
Temperature  
Mean Temperature 71 °F 68 °F  
Max Temperature 83 °F 78 °F 90 °F (1941)
Min Temperature 59 °F 57 °F 41 °F (1961)
Degree Days  
Heating Degree Days 0 2  
Month to date heating degree days 0 16  
Since 1 July heating degree days 0 18  
Cooling Degree Days 6 4  
Month to date cooling degree days 124 100  
Year to date cooling degree days 2358 2366  
Growing Degree Days 20 (Base 50)    
Moisture  
Dew Point 60 °F    
Average Humidity 68    
Maximum Humidity 90    
Minimum Humidity 45    
Precipitation  
Precipitation 0.00 in 0.13 in 2.08 in (1933)
Month to date precipitation 0.09 2.27  
Year to date precipitation 49.04 41.22  
Sea Level Pressure  
Sea Level Pressure 30.00 in    
Wind  
Wind Speed 3 mph (NE)    
Max Wind Speed 10 mph    
Max Gust Speed 14 mph    
Visibility 10 miles    
Events      
T = Trace of Precipitation, MM = Missing Value Source: NWS Daily Summary

Daily Weather History Graph

Daily Weather History Graph

Search for Another Location

Airport:

Trip Planner

Search our weather history database for the weather conditions in past years. The results will help you decide how hot, cold, wet, or windy it might be!

Date:

Astronomy

Oct. 16, 2013 Rise Set
Actual Time 7:29 AM EDT 6:50 PM EDT
Civil Twilight 7:04 AM EDT 7:15 PM EDT
Nautical Twilight 6:36 AM EDT 7:43 PM EDT
Astronomical Twilight 6:07 AM EDT 8:12 PM EDT
Moon 5:23 PM EDT (10/16) 5:03 AM EDT (10/16)
Length of Visible Light 12h 10m
Length of Day
11h 21m
Waxing Gibbous, 94% of the Moon is Illuminated
Oct 16
Waxing Gibbous
Oct 18
Full
Oct 26
Last Quarter
Nov 3
New
Nov 10
First Quarter

Hourly Weather History & Observations

Time (EDT) Temp. Heat Index Dew Point Humidity Pressure Visibility Wind Dir Wind Speed Gust Speed Precip Events Conditions
12:53 AM 62.1 °F - 57.9 °F 86% 30.03 in 10.0 mi Calm Calm - N/A   Clear
1:53 AM 61.0 °F - 57.9 °F 90% 30.03 in 10.0 mi NNW 3.5 mph - N/A   Clear
2:53 AM 60.1 °F - 57.0 °F 90% 30.01 in 10.0 mi North 3.5 mph - N/A   Clear
3:53 AM 60.1 °F - 57.0 °F 90% 30.00 in 10.0 mi North 3.5 mph - N/A   Clear
4:53 AM 61.0 °F - 57.0 °F 87% 30.00 in 10.0 mi Calm Calm - N/A   Clear
5:53 AM 60.1 °F - 57.0 °F 90% 30.00 in 10.0 mi NNW 3.5 mph - N/A   Scattered Clouds
6:53 AM 59.0 °F - 55.9 °F 90% 30.01 in 10.0 mi NNW 3.5 mph - N/A   Mostly Cloudy
7:53 AM 60.1 °F - 57.0 °F 90% 30.01 in 9.0 mi Calm Calm - N/A   Mostly Cloudy
8:53 AM 64.9 °F - 61.0 °F 87% 30.03 in 10.0 mi NNE 4.6 mph - N/A   Mostly Cloudy
9:53 AM 71.1 °F - 61.0 °F 70% 30.04 in 10.0 mi ENE 3.5 mph - N/A   Mostly Cloudy
10:53 AM 73.9 °F - 61.0 °F 64% 30.03 in 10.0 mi NNE 4.6 mph - N/A   Mostly Cloudy
11:53 AM 75.9 °F - 62.1 °F 62% 30.03 in 10.0 mi Variable 3.5 mph - N/A   Mostly Cloudy
12:53 PM 79.0 °F - 60.1 °F 52% 30.01 in 10.0 mi ENE 3.5 mph - N/A   Mostly Cloudy
1:53 PM 80.1 °F 80.9 °F 60.1 °F 50% 29.99 in 10.0 mi ENE 4.6 mph - N/A   Mostly Cloudy
2:53 PM 82.0 °F 82.1 °F 59.0 °F 45% 29.96 in 10.0 mi ENE 5.8 mph - N/A   Mostly Cloudy
3:53 PM 82.0 °F 82.1 °F 59.0 °F 45% 29.96 in 10.0 mi Variable 3.5 mph - N/A   Scattered Clouds
4:53 PM 81.0 °F 81.1 °F 57.9 °F 45% 29.95 in 10.0 mi Calm Calm - N/A   Scattered Clouds
5:53 PM 78.1 °F - 64.0 °F 62% 29.96 in 10.0 mi ESE 8.1 mph - N/A   Scattered Clouds
6:53 PM 73.9 °F - 64.0 °F 71% 29.97 in 10.0 mi SSE 8.1 mph - N/A   Scattered Clouds
7:53 PM 72.0 °F - 63.0 °F 73% 29.98 in 10.0 mi SE 6.9 mph - N/A   Scattered Clouds
8:53 PM 70.0 °F - 63.0 °F 78% 30.00 in 10.0 mi SSE 3.5 mph - N/A   Scattered Clouds
9:53 PM 69.1 °F - 63.0 °F 81% 30.01 in 10.0 mi SE 3.5 mph - N/A   Scattered Clouds
10:53 PM 70.0 °F - 63.0 °F 78% 30.01 in 10.0 mi Calm Calm - N/A   Partly Cloudy
11:53 PM 69.1 °F - 64.0 °F 84% 29.99 in 10.0 mi Calm Calm - N/A   Partly Cloudy